Three Rivers, MI

2:31 PM EDT on October 22, 2017 (GMT -0400)
Three Rivers Municipal-Haines

Weather History for KHAI - October, 2012

Change the Weather History Date:

Saturday, October 13, 2012

  Actual Average Record
Temperature  
Mean Temperature 50 °F -  
Max Temperature 64 °F 63 °F 86 °F (1975)
Min Temperature 38 °F 40 °F 24 °F (1977)
Degree Days  
Heating Degree Days 14    
Moisture  
Dew Point 42 °F    
Average Humidity 80    
Maximum Humidity 94    
Minimum Humidity 65    
Precipitation  
Precipitation 0.00 in - - ()
Sea Level Pressure  
Sea Level Pressure 30.11 in    
Wind  
Wind Speed 6 mph (SSE)    
Max Wind Speed 15 mph    
Max Gust Speed 20 mph    
Visibility 8 miles    
Events Rain    
Averages and records for this station are not official NWS values.
T = Trace of Precipitation, MM = Missing Value Source: NWS Daily Summary

Daily Weather History Graph

Daily Weather History Graph

Search for Another Location

Airport or City:

Trip Planner

Search our weather history database for the weather conditions in past years. The results will help you decide how hot, cold, wet, or windy it might be!

Date:

Astronomy

Oct. 13, 2012 Rise Set
Actual Time 7:53 AM EDT 7:03 PM EDT
Civil Twilight 7:24 AM EDT 7:31 PM EDT
Nautical Twilight 6:52 AM EDT 8:03 PM EDT
Astronomical Twilight 6:20 AM EDT 8:35 PM EDT
Moon 5:40 AM EDT (10/13) 5:47 PM EDT (10/13)
Length of Visible Light 12h 06m
Length of Day
11h 10m
Waning Crescent, 5% of the Moon is Illuminated
Oct 13
Waning Crescent
Oct 15
New
Oct 21
First Quarter
Oct 29
Full
Nov 6
Last Quarter

Hourly Weather History & Observations

Time (EDT) Temp. Windchill Dew Point Humidity Pressure Visibility Wind Dir Wind Speed Gust Speed Precip Events Conditions
12:14 AM 38.3 °F 34.8 °F 29.7 °F 71% 30.34 in 10.0 mi SE 4.6 mph - N/A   Clear
12:34 AM 39.0 °F 34.8 °F 29.1 °F 68% 30.33 in 10.0 mi SE 5.8 mph - N/A   Clear
12:53 AM 39.6 °F 36.3 °F 29.3 °F 67% 30.33 in 10.0 mi SE 4.6 mph - N/A   Clear
1:14 AM 39.2 °F 37.0 °F 29.3 °F 68% 30.33 in 10.0 mi SE 3.5 mph - N/A   Clear
1:54 AM 40.5 °F 36.5 °F 30.2 °F 67% 30.31 in 10.0 mi SE 5.8 mph - N/A   Clear
2:14 AM 40.1 °F 35.3 °F 30.2 °F 68% 30.31 in 10.0 mi SE 6.9 mph - N/A   Clear
2:33 AM 40.1 °F 36.1 °F 30.6 °F 69% 30.30 in 10.0 mi SE 5.8 mph - N/A   Clear
2:54 AM 39.2 °F 37.0 °F 30.6 °F 71% 30.30 in 10.0 mi SSE 3.5 mph - N/A   Clear
3:14 AM 40.1 °F 35.3 °F 30.7 °F 69% 30.30 in 10.0 mi SSE 6.9 mph - N/A   Clear
3:34 AM 39.2 °F 35.9 °F 30.6 °F 71% 30.30 in 10.0 mi SSE 4.6 mph - N/A   Clear
3:54 AM 39.9 °F 36.7 °F 31.1 °F 71% 30.29 in 10.0 mi SE 4.6 mph - N/A   Clear
4:13 AM 40.5 °F 36.5 °F 31.6 °F 71% 30.28 in 10.0 mi SSE 5.8 mph - N/A   Clear
4:34 AM 41.0 °F 38.0 °F 32.0 °F 70% 30.28 in 10.0 mi SSE 4.6 mph - N/A   Clear
4:54 AM 40.1 °F 36.9 °F 31.8 °F 72% 30.27 in 10.0 mi SSE 4.6 mph - N/A   Clear
5:13 AM 40.3 °F 37.1 °F 32.0 °F 72% 30.26 in 10.0 mi SSE 4.6 mph - N/A   Clear
5:34 AM 41.0 °F 38.0 °F 32.0 °F 70% 30.26 in 10.0 mi SE 4.6 mph - N/A   Clear
5:53 AM 41.5 °F 37.1 °F 31.8 °F 68% 30.24 in 10.0 mi SSE 6.9 mph - N/A   Clear
6:14 AM 42.1 °F 37.1 °F 31.6 °F 67% 30.22 in 10.0 mi SSE 8.1 mph - N/A   Clear
6:34 AM 42.4 °F 38.1 °F 31.5 °F 65% 30.21 in 10.0 mi SSE 6.9 mph - N/A   Clear
6:53 AM 42.8 °F 38.6 °F 31.6 °F 65% 30.22 in 10.0 mi SSE 6.9 mph - N/A   Mostly Cloudy
7:14 AM 42.8 °F 38.0 °F 31.8 °F 65% 30.21 in 10.0 mi SSE 8.1 mph - N/A   Mostly Cloudy
7:34 AM 43.0 °F 38.8 °F 32.0 °F 65% 30.21 in 10.0 mi South 6.9 mph - N/A   Light Drizzle
7:53 AM 43.2 °F 39.7 °F 32.4 °F 66% 30.22 in 10.0 mi SSE 5.8 mph - N/A Rain Light Rain
8:14 AM 42.4 °F 39.6 °F 34.3 °F 73% 30.21 in 10.0 mi SE 4.6 mph - N/A Rain Rain
8:34 AM 42.6 °F - 35.2 °F 75% 30.21 in 7.0 mi Calm Calm - N/A Rain Light Rain
8:53 AM 42.1 °F 39.2 °F 36.9 °F 82% 30.21 in 10.0 mi ENE 4.6 mph - N/A Rain Rain
9:14 AM 41.9 °F 39.0 °F 37.6 °F 85% 30.19 in 10.0 mi East 4.6 mph - N/A   Overcast
9:54 AM 42.8 °F 39.3 °F 37.2 °F 81% 30.19 in 10.0 mi East 5.8 mph - N/A   Overcast
10:33 AM 42.4 °F 37.5 °F 37.9 °F 84% 30.18 in 10.0 mi ENE 8.1 mph - N/A Rain Light Rain
10:54 AM 43.2 °F 38.4 °F 38.5 °F 84% 30.17 in 10.0 mi East 8.1 mph - N/A   Overcast
11:34 AM 44.2 °F 40.3 °F 39.2 °F 82% 30.15 in 10.0 mi East 6.9 mph - N/A   Overcast
11:54 AM 44.6 °F 39.7 °F 39.6 °F 82% 30.13 in 10.0 mi East 9.2 mph - N/A   Overcast
12:13 PM 44.8 °F 39.9 °F 39.6 °F 82% 30.11 in 10.0 mi ESE 9.2 mph - N/A   Overcast
12:34 PM 45.5 °F 41.3 °F 39.6 °F 80% 30.10 in 10.0 mi ESE 8.1 mph - N/A   Light Drizzle
12:54 PM 46.8 °F - 39.6 °F 76% 30.09 in 10.0 mi SE 4.6 mph - N/A   Overcast
1:34 PM 50.0 °F - 41.0 °F 71% 30.06 in 10.0 mi SSE 5.8 mph - N/A Rain Light Rain
1:54 PM 51.1 °F - 41.7 °F 70% 30.03 in 10.0 mi SSE 6.9 mph - N/A Rain Light Rain
2:13 PM 50.9 °F - 43.2 °F 75% 30.03 in 5.0 mi SSE 6.9 mph - N/A Rain Heavy Rain
2:34 PM 49.6 °F - 45.0 °F 84% 30.03 in 4.0 mi South 4.6 mph - N/A Rain Heavy Rain
2:54 PM 49.5 °F - 46.0 °F 88% 30.01 in 5.0 mi SSE 3.5 mph - N/A Rain Rain
3:14 PM 49.5 °F - 46.6 °F 90% 30.00 in 2.0 mi SSE 5.8 mph - N/A Rain Rain
3:34 PM 50.0 °F - 47.5 °F 91% 29.98 in 5.0 mi SSE 4.6 mph - N/A Rain Light Rain
3:54 PM 51.1 °F - 49.1 °F 93% 29.97 in 5.0 mi South 4.6 mph - N/A Rain Light Rain
4:14 PM 52.2 °F - 49.8 °F 92% 29.96 in 5.0 mi SSE 5.8 mph - N/A   Light Drizzle
4:34 PM 52.7 °F - 50.4 °F 92% 29.95 in 5.0 mi South 9.2 mph - N/A Rain Light Rain
4:53 PM 53.2 °F - 51.1 °F 92% 29.94 in 5.0 mi South 8.1 mph - N/A Rain Light Rain
5:14 PM 53.6 °F - 51.4 °F 92% 29.92 in 5.0 mi SSE 5.8 mph - N/A Rain Light Rain
5:34 PM 54.5 °F - 52.5 °F 93% 29.92 in 4.0 mi South 6.9 mph - N/A   Overcast
5:53 PM 55.4 °F - 53.6 °F 94% 29.90 in 4.0 mi South 4.6 mph - N/A   Overcast
6:14 PM 57.7 °F - 55.9 °F 94% 29.90 in 4.0 mi SW 5.8 mph - N/A   Overcast
6:53 PM 59.9 °F - 58.1 °F 94% 29.89 in 5.0 mi SSW 11.5 mph - N/A   Light Drizzle
7:14 PM 60.3 °F - 58.3 °F 93% 29.88 in 5.0 mi SSW 11.5 mph - N/A Rain Light Rain
7:34 PM 60.8 °F - 59.0 °F 94% 29.88 in 5.0 mi SSW 10.4 mph 18.4 mph N/A   Overcast
8:33 PM 62.2 °F - 60.3 °F 93% 29.88 in 4.0 mi SSW 15.0 mph 19.6 mph N/A Rain Light Rain
8:54 PM 62.8 °F - 60.8 °F 93% 29.90 in 4.0 mi SW 9.2 mph - N/A Rain Heavy Rain
9:33 PM 63.0 °F - 60.8 °F 93% 29.90 in 4.0 mi WSW 4.6 mph 17.3 mph N/A Rain Light Rain
10:14 PM 63.5 °F - 61.2 °F 92% 29.91 in 4.0 mi WSW 4.6 mph - N/A Rain Light Rain
10:33 PM 63.5 °F - 61.0 °F 91% 29.90 in 4.0 mi SSW 8.1 mph - N/A   Overcast
10:54 PM 63.7 °F - 61.5 °F 93% 29.89 in 4.0 mi SW 8.1 mph - N/A   Overcast
11:14 PM 64.0 °F - 61.7 °F 92% 29.89 in 4.0 mi SW 8.1 mph - N/A   Overcast